Overview Statistics Trail Chart Weather Telemetry Raw packets
 

This is the latest recevied weather packets stored in our database for station/object SV9TNF-56. If no packets are shown the sender has not sent any weather packets the latest 10 day(s).

<< 69 70 71 72 73 74 75 >>
Time Temp. Humidity Pressure Rain* Wind** Luminosity Snow
1788175067 26.11° C 62% 1012.5 hPa 0 mm 19.67 m/s, 271° - -
1788174766 26.11° C 63% 1012.5 hPa 0 mm 23.25 m/s, 294° - -
1788174466 26.11° C 65% 1012.5 hPa 0 mm 12.07 m/s, 271° - -
1788174166 25.56° C 68% 1012.5 hPa 0 mm 22.8 m/s, 300° - -
1788173866 25.56° C 67% 1012.5 hPa 0 mm 24.59 m/s, 286° - -
1788173566 25.56° C 67% 1012.5 hPa 0 mm 27.72 m/s, 284° - -
1788173277 25.56° C 69% 1012.5 hPa 0 mm 28.61 m/s, 262° - -
1788172966 25.56° C 69% 1012.5 hPa 0 mm 13.41 m/s, 312° - -
1788172665 25.56° C 68% 1012.5 hPa 0 mm 17.88 m/s, 312° - -
1788172365 25.56° C 67% 1012.9 hPa 0 mm 21.01 m/s, 352° - -
1788172066 25.56° C 71% 1012.9 hPa 0 mm 15.2 m/s, 318° - -
1788171765 25.56° C 71% 1012.9 hPa 0 mm 16.99 m/s, 354° - -
1788171466 25.56° C 70% 1019.3 hPa 0 mm 14.75 m/s, 288° - -
1788171165 25.56° C 70% 1019.3 hPa 0 mm 14.75 m/s, 288° - -
1788170865 25.56° C 70% 1019.3 hPa 0 mm 14.75 m/s, 288° - -
1788170565 25.56° C 70% 1019.3 hPa 0 mm 13.86 m/s, 235° - -
1788170265 25.56° C 69% 1019.3 hPa 0 mm 13.86 m/s, 317° - -
1788169965 25.56° C 69% 1019.3 hPa 0 mm 16.99 m/s, 302° - -
1788169665 26.11° C 68% 1019.3 hPa 0 mm 25.48 m/s, 270° - -
1788169365 26.11° C 69% 1019.3 hPa 0 mm 21.9 m/s, 270° - -
1788169064 26.11° C 66% 1019.3 hPa 0 mm 17.88 m/s, 276° - -
1788168765 25.56° C 69% 1019 hPa 0 mm 10.28 m/s, 272° - -
1788168464 25.56° C 69% 1019.3 hPa 0 mm 22.35 m/s, 304° - -
1788168164 25.56° C 69% 1019.3 hPa 0 mm 12.07 m/s, 300° - -
1788167864 25.56° C 70% 1019.3 hPa 0 mm 8.05 m/s, 317° - -

* Rain latest hour (hover to see other rain measurements)
** Current wind speed in m/s (hover to see current wind gust speed)